PGT536 EDDL-LTBJ

Flight info

Callsign PGT536
Flight time N/A
Altitude 35000
Route DODEN1T DODEN Y853 BOMBI DCT DETEV DCT DINKU DCT BESNI DCT LATLO DCT OBEDI DCT CEPRA DCT PODET DCT NOVLO DCT YULHU DCT VABEK UL603 OLOTA DCT RUGAS DCT PEREN DCT LMO UN127 RIKSO
Aircraft A320/M-SDE3FGHIRWY/LB1

Departure

Time 2026-05-04 14:37
Airport Düsseldorf Airport (EDDL)

Arrival

Time N/A
Airport Adnan Menderes International Airport (LTBJ)
Time Latitude Longitude Altitude Speed Heading
2026-05-04 14:13 51.27730 6.76162 137 ft 0 kts 158°
2026-05-04 14:27 51.27739 6.76156 137 ft 4 kts 161°
2026-05-04 14:27 51.27765 6.76145 137 ft 4 kts 170°
2026-05-04 14:28 51.27791 6.76139 137 ft 4 kts 173°
2026-05-04 14:28 51.27817 6.76132 137 ft 3 kts 159°
2026-05-04 14:28 51.27834 6.76123 137 ft 4 kts 204°
2026-05-04 14:28 51.27841 6.76145 137 ft 4 kts 272°
2026-05-04 14:29 51.27841 6.76191 137 ft 0 kts 272°
2026-05-04 14:31 51.27869 6.76050 137 ft 9 kts 337°
2026-05-04 14:32 51.28018 6.76047 137 ft 17 kts
2026-05-04 14:32 51.28115 6.76025 137 ft 12 kts
2026-05-04 14:32 51.28171 6.76109 137 ft 14 kts 53°
2026-05-04 14:32 51.28240 6.76257 137 ft 19 kts 53°
2026-05-04 14:33 51.28311 6.76408 136 ft 15 kts 53°
2026-05-04 14:33 51.28375 6.76542 137 ft 20 kts 51°
2026-05-04 14:33 51.28486 6.76768 137 ft 28 kts 52°
2026-05-04 14:33 51.28599 6.77010 137 ft 26 kts 53°
2026-05-04 14:34 51.28705 6.77230 137 ft 24 kts 53°
2026-05-04 14:34 51.28803 6.77435 136 ft 23 kts 51°
2026-05-04 14:34 51.28895 6.77623 136 ft 20 kts 54°
2026-05-04 14:34 51.28984 6.77818 137 ft 24 kts 53°
2026-05-04 14:35 51.29093 6.78044 137 ft 27 kts 53°
2026-05-04 14:35 51.29203 6.78273 137 ft 25 kts 52°
2026-05-04 14:35 51.29301 6.78483 137 ft 22 kts 54°
2026-05-04 14:35 51.29413 6.78573 138 ft 17 kts 357°
2026-05-04 14:36 51.29504 6.78556 143 ft 8 kts 342°
2026-05-04 14:36 51.29531 6.78494 143 ft 11 kts 266°
2026-05-04 14:36 51.29479 6.78381 142 ft 13 kts 232°
2026-05-04 14:36 51.29359 6.78128 140 ft 59 kts 232°
2026-05-04 14:37 51.28975 6.77323 127 ft 120 kts 233°
2026-05-04 14:37 51.28382 6.76049 196 ft 161 kts 236°
2026-05-04 14:37 51.27731 6.74632 890 ft 158 kts 232°
2026-05-04 14:37 51.27075 6.73203 1563 ft 160 kts 232°
2026-05-04 14:38 51.26397 6.71766 2083 ft 169 kts 231°
2026-05-04 14:38 51.25644 6.70190 2409 ft 188 kts 231°
2026-05-04 14:38 51.24820 6.68470 2842 ft 202 kts 231°
2026-05-04 14:38 51.23934 6.66601 3254 ft 224 kts 232°
2026-05-04 14:39 51.22859 6.64622 3598 ft 247 kts 216°
2026-05-04 14:39 51.21236 6.63623 4195 ft 257 kts 184°
2026-05-04 14:39 51.19446 6.63878 5007 ft 260 kts 171°
2026-05-04 14:40 51.15825 6.64677 6526 ft 268 kts 163°
2026-05-04 14:40 51.14188 6.66164 7294 ft 272 kts 136°
2026-05-04 14:40 51.13205 6.68699 8090 ft 279 kts 107°
2026-05-04 14:40 51.13111 6.71843 8930 ft 285 kts 86°
2026-05-04 14:41 51.13282 6.74956 9698 ft 289 kts 88°
2026-05-04 14:41 51.13425 6.78224 10277 ft 298 kts 88°
2026-05-04 14:41 51.13673 6.85267 10573 ft 343 kts 88°
2026-05-04 14:42 51.13945 6.93178 11426 ft 365 kts 88°
2026-05-04 14:42 51.14088 6.97239 12124 ft 369 kts 88°
2026-05-04 14:42 51.14231 7.01350 12883 ft 373 kts 88°
2026-05-04 14:43 51.14378 7.05492 13593 ft 377 kts 88°
2026-05-04 14:43 51.14529 7.09680 14212 ft 381 kts 88°
2026-05-04 14:43 51.14678 7.13904 14781 ft 384 kts 89°
2026-05-04 14:43 51.14825 7.18190 15276 ft 390 kts 89°
2026-05-04 14:44 51.14974 7.22530 15810 ft 394 kts 89°
2026-05-04 14:44 51.15120 7.26918 16335 ft 399 kts 89°
2026-05-04 14:44 51.15265 7.31353 16868 ft 402 kts 89°
2026-05-04 14:44 51.15385 7.35819 17395 ft 405 kts 93°
2026-05-04 14:45 51.15074 7.40257 17881 ft 404 kts 105°
2026-05-04 14:45 51.14198 7.44499 18353 ft 403 kts 117°
2026-05-04 14:45 51.12830 7.48378 18775 ft 402 kts 128°
2026-05-04 14:45 51.11032 7.51771 19188 ft 401 kts 138°
2026-05-04 14:46 51.09015 7.54855 19613 ft 403 kts 139°
2026-05-04 14:46 51.06981 7.57955 20035 ft 406 kts 139°
2026-05-04 14:46 51.04934 7.61070 20439 ft 408 kts 139°
2026-05-04 14:46 51.02873 7.64198 20847 ft 411 kts 140°
2026-05-04 14:47 51.00800 7.67342 21256 ft 413 kts 140°
2026-05-04 14:47 50.98716 7.70506 21673 ft 416 kts 140°
2026-05-04 14:47 50.96561 7.73573 22070 ft 416 kts 146°
2026-05-04 14:47 50.94184 7.76105 22457 ft 415 kts 152°